Ivalo, Suomi

21. lokakuuta 2018 klo 10:04 (EEST) (GMT +0300)
Ivalo | | Change Station

Kork 482 ft 68.62 °N, 27.42 °E | Updated 1 hour ago

Sadetta
Sadetta
41 °F
Tuntuu kuin 34 °F
N
13
Tuuli Suunnaltaan vaihteleva Tuuli ilmansuunnasta Etelä
Gusts 30 mph

Tänään
Korkea -- | Matala -- °F
--% Sateen mahd.
Eilen
Korkea -- | Matala -- °F
Precip. -- tuumaa
Ilmanpaine 29.53 tuumaa
Näkyvyys 6.2 mailia
Pilviä Pilvistä 1200 ft
Pilvistä 7500 ft
Tuulen hyytävyys 34 °F
Kastepiste 37 °F
Ilmankosteus 87%
Sademäärä 0.00 tuumaa
Lumensyvyys Ei saatavilla
8:39 AM 5:07 PM
Kasvava kupera kuu, 88% visible
METAR EFIV 210550Z AUTO 18011G26KT 150V220 9999 BKN012 BKN075 05/03 Q1000
Ilmanpaine 29.53 tuumaa
Näkyvyys 6.2 mailia
Pilviä Pilvistä 1200 ft
Pilvistä 7500 ft
Tuulen hyytävyys 34 °F
Kastepiste 37 °F
Ilmankosteus 87%
Sademäärä 0.00 tuumaa
Lumensyvyys Ei saatavilla
8:39 AM 5:07 PM
Kasvava kupera kuu, 88% visible
METAR EFIV 210550Z AUTO 18011G26KT 150V220 9999 BKN012 BKN075 05/03 Q1000

Get Severe Weather Alerts

Thanks for signing up!

Be on the lookout for a verification email in your inbox.

You'll start receiving the daily forecast at 6 AM.

×

10-Day Weather Forecast

×

Almanac

Tähtitiede

Oct. 21, 2018 Nousuaika Laskuaika
Valoisa aika
Porvarillinen hämärä
Nauttinen hämärä
Astronominen hämärä
Kuu
Näkyvän valon pituus
Päivän pituus
Tomorrow will be .
, % of the Moon is Illuminated

Tämän päivän ennätykset

Country Highs Country Lows

Community

WunderPhotos

Category 6

Welcome to Category 6. This is the collective home for Weather Underground's featured writeups by Dr. Jeff Masters (right), Bob Henson (left), Chris Burt, and other regular contributors.

Nearby

Ilmanlaatu

  Ilmanlaatu AQ Index Pollutant
Not available.

Lumensyvyys

Station Depth Korkeus

Maanjäristysaktiivisuus

Paikkakunta Distance Mag. Time & Date
Minimum magnitude displayed is 2.5.

Coastal Water Temperatures

Paikka Lämpötila

Stations

Lähimmät sääasemat

Aseman sijainti Lämpötila Tuulen hyytävyys Kastepiste Ilmankosteus Tuuli Precip. Kork Päivitetty Tyyppi